Weather History for Soldotna, AK

Change the Weather History Date:

Sunday, September 15, 2013

  Actual Average Record
Temperature  
Mean Temperature 48 °F -  
Max Temperature 62 °F 56 °F 67 °F (1969)
Min Temperature 35 °F 40 °F 23 °F (1987)
Degree Days  
Heating Degree Days 16    
Moisture  
Dew Point 38 °F    
Average Humidity 73    
Maximum Humidity 93    
Minimum Humidity 34    
Precipitation  
Precipitation 0.00 in - - ()
Sea Level Pressure  
Sea Level Pressure 29.82 in    
Wind  
Wind Speed 2 mph (NNW)    
Max Wind Speed 14 mph    
Max Gust Speed -    
Visibility 10 miles    
Events      
Averages and records for this station are not official NWS values.
T = Trace of Precipitation, MM = Missing Value Source: NWS Daily Summary

Daily Weather History Graph

Daily Weather History Graph

Search for Another Location

Airport:

Trip Planner

Search our weather history database for the weather conditions in past years. The results will help you decide how hot, cold, wet, or windy it might be!

Date:

Astronomy

Sep. 15, 2013 Rise Set
Actual Time 7:32 AM AKDT 8:24 PM AKDT
Civil Twilight 6:49 AM AKDT 9:06 PM AKDT
Nautical Twilight 5:56 AM AKDT 9:59 PM AKDT
Astronomical Twilight 4:56 AM AKDT 10:58 PM AKDT
Moon 6:41 PM AKDT (9/15) 2:28 AM AKDT (9/15)
Length of Visible Light 14h 17m
Length of Day
12h 51m
Waxing Gibbous, 83% of the Moon is Illuminated
Sep 15
Waxing Gibbous
Sep 19
Full
Sep 26
Last Quarter
Oct 4
New
Oct 11
First Quarter

Hourly Weather History & Observations

Time (AKDT) Temp. Windchill Dew Point Humidity Pressure Visibility Wind Dir Wind Speed Gust Speed Precip Events Conditions
12:16 AM 42.8 °F - 39.2 °F 87% 29.87 in 10.0 mi Calm Calm - N/A   Clear
12:36 AM 42.8 °F - 37.4 °F 81% 29.87 in 10.0 mi Calm Calm - N/A   Clear
12:56 AM 41.0 °F - 37.4 °F 87% 29.87 in 10.0 mi Calm Calm - N/A   Clear
1:16 AM 41.0 °F - 37.4 °F 87% 29.87 in 10.0 mi Calm Calm - N/A   Scattered Clouds
1:36 AM 42.8 °F - 37.4 °F 81% 29.87 in 10.0 mi Calm Calm - N/A   Overcast
1:56 AM 41.0 °F - 37.4 °F 87% 29.88 in 10.0 mi Calm Calm - N/A   Mostly Cloudy
2:16 AM 39.2 °F - 37.4 °F 93% 29.87 in 10.0 mi Calm Calm - N/A   Clear
2:36 AM 42.8 °F - 39.2 °F 87% 29.87 in 10.0 mi Calm Calm - N/A   Clear
2:56 AM 39.2 °F - 35.6 °F 87% 29.87 in 10.0 mi Calm Calm - N/A   Clear
3:16 AM 39.2 °F - 35.6 °F 87% 29.87 in 10.0 mi Calm Calm - N/A   Partly Cloudy
3:36 AM 39.2 °F - 35.6 °F 87% 29.87 in 10.0 mi Calm Calm - N/A   Scattered Clouds
3:56 AM 39.2 °F - 35.6 °F 87% 29.87 in 10.0 mi Calm Calm - N/A   Clear
4:16 AM 39.2 °F - 35.6 °F 87% 29.87 in 10.0 mi Calm Calm - N/A   Clear
4:36 AM 37.4 °F - 33.8 °F 87% 29.87 in 10.0 mi Calm Calm - N/A   Clear
4:56 AM 37.4 °F - 33.8 °F 87% 29.87 in 10.0 mi Calm Calm - N/A   Clear
5:16 AM 37.4 °F - 33.8 °F 87% 29.86 in 10.0 mi Calm Calm - N/A   Clear
5:36 AM 37.4 °F - 35.6 °F 93% 29.86 in 10.0 mi Calm Calm - N/A   Clear
5:56 AM 35.6 °F - 30.2 °F 81% 29.87 in 10.0 mi Calm Calm - N/A   Clear
6:16 AM 35.6 °F - 32.0 °F 87% 29.86 in 10.0 mi Calm Calm - N/A   Clear
6:36 AM 35.6 °F - 30.2 °F 81% 29.86 in 10.0 mi Calm Calm - N/A   Clear
6:56 AM 35.6 °F - 32.0 °F 87% 29.87 in 10.0 mi Calm Calm - N/A   Scattered Clouds
7:16 AM 35.6 °F 32.8 °F 33.8 °F 93% 29.86 in 10.0 mi ENE 3.5 mph - N/A   Mostly Cloudy
7:36 AM 35.6 °F - 33.8 °F 93% 29.86 in 10.0 mi Calm Calm - N/A   Scattered Clouds
7:56 AM 35.6 °F - 33.8 °F 93% 29.86 in 10.0 mi Calm Calm - N/A   Clear
8:16 AM 35.6 °F - 30.2 °F 81% 29.86 in 10.0 mi Calm Calm - N/A   Clear
8:36 AM 35.6 °F 32.8 °F 33.8 °F 93% 29.86 in 10.0 mi ENE 3.5 mph - N/A   Clear
8:56 AM 37.4 °F 34.9 °F 35.6 °F 93% 29.86 in 10.0 mi ENE 3.5 mph - N/A   Clear
9:16 AM 39.2 °F - 35.6 °F 87% 29.86 in 10.0 mi Calm Calm - N/A   Clear
9:36 AM 42.8 °F 41.1 °F 37.4 °F 81% 29.86 in 10.0 mi ENE 3.5 mph - N/A   Clear
9:56 AM 44.6 °F 43.1 °F 39.2 °F 81% 29.86 in 10.0 mi East 3.5 mph - N/A   Clear
10:16 AM 46.4 °F 45.2 °F 39.2 °F 76% 29.86 in 10.0 mi ENE 3.5 mph - N/A   Clear
10:36 AM 50.0 °F - 41.0 °F 71% 29.86 in 10.0 mi East 4.6 mph - N/A   Clear
10:56 AM 51.8 °F - 39.2 °F 62% 29.86 in 10.0 mi East 4.6 mph - N/A   Clear
11:16 AM 53.6 °F - 39.2 °F 58% 29.86 in 10.0 mi ESE 5.8 mph - N/A   Clear
11:36 AM 53.6 °F - 39.2 °F 58% 29.85 in 10.0 mi East 4.6 mph - N/A   Clear
11:56 AM 53.6 °F - 37.4 °F 54% 29.85 in 10.0 mi Calm Calm - N/A   Clear
12:16 PM 53.6 °F - 39.2 °F 58% 29.84 in 10.0 mi Calm Calm - N/A   Clear
12:36 PM 55.4 °F - 39.2 °F 54% 29.84 in 10.0 mi NNE 3.5 mph - N/A   Clear
12:56 PM 55.4 °F - 39.2 °F 54% 29.84 in 10.0 mi North 3.5 mph - N/A   Clear
1:16 PM 55.4 °F - 39.2 °F 54% 29.84 in 10.0 mi Calm Calm - N/A   Clear
1:36 PM 57.2 °F - 39.2 °F 51% 29.83 in 10.0 mi Calm Calm - N/A   Clear
1:56 PM 57.2 °F - 37.4 °F 48% 29.82 in 10.0 mi ENE 6.9 mph - N/A   Clear
2:16 PM 59.0 °F - 37.4 °F 45% 29.81 in 10.0 mi North 4.6 mph - N/A   Clear
2:36 PM 60.8 °F - 35.6 °F 39% 29.81 in 10.0 mi North 4.6 mph - N/A   Clear
2:56 PM 60.8 °F - 35.6 °F 39% 29.80 in 10.0 mi North 8.1 mph - N/A   Clear
3:16 PM 62.6 °F - 33.8 °F 34% 29.80 in 10.0 mi NNE 8.1 mph - N/A   Clear
3:36 PM 60.8 °F - 42.8 °F 52% 29.79 in 10.0 mi West 13.8 mph - N/A   Clear
3:56 PM 60.8 °F - 42.8 °F 52% 29.78 in 10.0 mi West 11.5 mph - N/A   Clear
4:16 PM 60.8 °F - 42.8 °F 52% 29.78 in 10.0 mi West 9.2 mph - N/A   Clear
4:36 PM 60.8 °F - 44.6 °F 55% 29.78 in 10.0 mi West 10.4 mph - N/A   Clear
4:56 PM 60.8 °F - 44.6 °F 55% 29.77 in 10.0 mi West 10.4 mph - N/A   Clear
5:16 PM 59.0 °F - 44.6 °F 59% 29.77 in 10.0 mi West 10.4 mph - N/A   Clear
5:36 PM 59.0 °F - 44.6 °F 59% 29.77 in 10.0 mi West 9.2 mph - N/A   Clear
5:56 PM 59.0 °F - 44.6 °F 59% 29.77 in 10.0 mi West 9.2 mph - N/A   Clear
6:16 PM 57.2 °F - 44.6 °F 63% 29.76 in 10.0 mi West 9.2 mph - N/A   Clear
6:36 PM 57.2 °F - 44.6 °F 63% 29.76 in 10.0 mi West 8.1 mph - N/A   Clear
6:56 PM 57.2 °F - 44.6 °F 63% 29.76 in 10.0 mi West 8.1 mph - N/A   Clear
7:16 PM 55.4 °F - 44.6 °F 67% 29.76 in 10.0 mi West 9.2 mph - N/A   Clear
7:36 PM 55.4 °F - 42.8 °F 63% 29.75 in 10.0 mi West 4.6 mph - N/A   Clear
7:56 PM 53.6 °F - 42.8 °F 67% 29.74 in 10.0 mi West 5.8 mph - N/A   Clear
8:16 PM 51.8 °F - 42.8 °F 71% 29.74 in 10.0 mi West 3.5 mph - N/A   Clear
8:36 PM 51.8 °F - 42.8 °F 71% 29.74 in 10.0 mi West 5.8 mph - N/A   Clear
8:56 PM 50.0 °F - 41.0 °F 71% 29.74 in 10.0 mi Calm Calm - N/A   Clear
9:16 PM 46.4 °F - 39.2 °F 76% 29.74 in 10.0 mi Calm Calm - N/A   Clear
9:36 PM 46.4 °F - 39.2 °F 76% 29.73 in 10.0 mi Calm Calm - N/A   Clear
9:56 PM 44.6 °F - 39.2 °F 81% 29.73 in 10.0 mi Calm Calm - N/A   Clear
10:16 PM 44.6 °F - 37.4 °F 76% 29.73 in 10.0 mi Calm Calm - N/A   Clear
10:36 PM 42.8 °F - 37.4 °F 81% 29.72 in 10.0 mi Calm Calm - N/A   Clear
10:56 PM 41.0 °F - 35.6 °F 81% 29.73 in 10.0 mi Calm Calm - N/A   Clear
11:16 PM 42.8 °F - 39.2 °F 87% 29.73 in 10.0 mi Calm Calm - N/A   Clear
11:36 PM 41.0 °F - 35.6 °F 81% 29.72 in 10.0 mi Calm Calm - N/A   Clear
11:56 PM 44.6 °F - 39.2 °F 81% 29.71 in 10.0 mi Calm Calm - N/A   Clear